Location: Launois
(49.6535°N, 4.5395°E)
Time: 20:49:28
(UTC+00:00)

Cosmos 2242 Rocket - Pass Details

Date: 23 May 2024
Orbit: 617 x 647 km, 82.5° (Epoch: 14 June)

Event Time Altitude Azimuth Distance (km) Brightness Sun altitude
Exits shadow 02:30:55 13° 213° (SSW) 1,786 5.3 -10.0°
Maximum altitude 02:34:38 47° 285° (WNW) 839 4.1 -9.6°
Drops below altitude 10° 02:38:59 10° 360° (N) 2,032 7.0 -9.1°
Sets 02:41:20 0° 6° (N) 2,951 8.0 -8.9°
